Location: Hipsheim
(48.4660°N, 7.6757°E)
Time: 05:36:25
(UTC+00:00)

Daily predictions for brighter satellites

Satellite Brightness Start Highest point End
(mag) Time Altitude Azimuth Time Altitude Azimuth Time Altitude Azimuth
STPSAT 2 (USA 217) 4.5 00:05:33 58° SSW 00:06:26 89° ESE 00:10:56 10° NNE
Cosmos 2322 Rocket 2.6 00:05:15 30° WSW 00:07:53 57° WNW 00:13:26 10° NNE
Okean 1-7 4.3 00:06:47 27° W 00:07:57 31° WNW 00:11:53 10° N
Cosmos 1818 3.5 00:04:39 10° NW 00:10:10 88° SW 00:12:49 32° SE
USA 267 4.3 00:10:32 25° SW 00:10:38 25° SW 00:15:54 10° WNW
Cosmos 1242 Rocket 2.7 00:07:07 10° N 00:10:43 61° ENE 00:11:04 57° ESE
ATLAS CENTAUR R/B 2.0 00:08:30 10° NW 00:13:24 68° NE 00:16:20 23° SE
Cosmos 2151 Rocket 3.8 00:10:11 10° N 00:14:34 65° E 00:15:52 42° SE
USA 290 4.4 00:16:07 18° E 00:16:07 18° E 00:18:12 10° ENE
Okean 2 Rocket 3.1 00:15:50 10° N 00:20:22 84° E 00:21:36 48° SSE
Cosmos 372 Rocket 3.9 00:19:41 46° SSW 00:21:16 87° ESE 00:26:28 10° NNE
ADEOS Rocket 3.8 00:20:35 26° WSW 00:21:59 29° W 00:26:55 10° NNW
SL-08 R/B 4.4 00:16:59 10° N 00:23:16 88° W 00:26:13 34° S
GP-B 4.3 00:21:19 10° NNE 00:25:25 35° E 00:27:23 24° SE
Cosmos 1953 3.4 00:21:52 10° N 00:25:41 39° ENE 00:27:20 27° SE
Cosmos 1844 Rocket 3.2 00:21:05 10° NW 00:26:13 38° WSW 00:27:18 35° SW
Cosmos 1378 Rocket 4.0 00:25:44 38° SE 00:26:59 51° E 00:31:17 10° NNE
Cosmos 1844 4.1 00:21:54 10° NW 00:27:25 45° WSW 00:28:57 37° SSW
Meteor 1-21 4.3 00:26:51 38° SSW 00:29:11 82° WNW 00:35:03 10° N
Cosmos 1937 Rocket 3.8 00:29:41 34° SW 00:31:45 58° WNW 00:36:59 10° NNE
Cosmos 1758 3.3 00:29:01 10° NNW 00:32:57 64° W 00:33:27 57° SW
Cosmos 1680 Rocket 4.5 00:28:51 10° NW 00:33:27 30° W 00:34:16 29° WSW
NOSS 3-1 (A) 4.3 00:26:18 10° NW 00:33:33 70° NE 00:42:10 10° SE
Sich 1 Rocket 3.8 00:30:41 10° NNW 00:34:58 54° W 00:35:48 46° SW
Resurs 1-4 Rocket 3.1 00:31:48 10° NNE 00:36:41 37° E 00:39:18 23° SSE
Cosmos 1674 2.5 00:36:19 66° SW 00:36:46 79° W 00:40:32 10° N
Cosmos 1470 4.0 00:33:50 10° NNW 00:37:09 27° W 00:37:14 27° W
Okean 2 3.4 00:39:06 52° SW 00:39:55 67° WNW 00:44:00 10° N
CZ-4C R/B 3.1 00:33:10 10° NW 00:40:17 79° NE 00:48:43 10° SE
Cosmos 2219 Rocket 2.1 00:39:12 38° SSW 00:41:27 81° ESE 00:47:04 10° NNE
Cosmos 1707 3.4 00:40:54 37° W 00:41:31 41° WNW 00:45:14 10° N
SL-16 R/B 3.8 00:38:30 12° WSW 00:42:50 28° NW 00:47:41 10° NNE
NOSS 3-1 (C) 4.0 00:37:41 10° NW 00:45:05 76° SW 00:53:49 10° SSE
Cosmos 1437 Rocket 2.9 00:41:37 10° N 00:45:24 63° ENE 00:46:36 39° SE
Cosmos 220 Rocket 4.2 00:44:38 43° SSE 00:45:44 59° ESE 00:49:51 10° NNE
COSMOS 2428 2.8 00:44:03 35° S 00:46:27 65° ESE 00:52:06 10° NNE
ATLAS 3B R/B 3.9 00:41:14 10° WNW 00:47:11 27° WSW 00:48:51 25° SW
ASTEX 1 4.3 00:42:52 10° N 00:47:20 37° WNW 00:49:02 28° WSW
Cosmos 1709 Rocket 4.2 00:44:25 10° N 00:50:35 66° ENE 00:55:03 19° SSE
Meteor 2-12 Rocket 4.5 00:48:05 10° N 00:54:12 78° E 00:58:14 22° SSE
Cosmos 839 Rocket 4.5 00:49:21 10° NW 00:55:36 69° NE 01:02:49 10° SE
MOZ.5/SAFIR/RUBIN 5/SL-8 3.8 00:53:59 39° S 00:55:38 65° WSW 01:00:22 10° NNW
Cosmos 1626 2.3 00:55:39 48° WSW 00:56:15 55° WNW 00:59:53 10° N
S3M 4.0 00:54:26 30° S 00:57:51 87° W 01:04:17 10° N
Cosmos 2237 Rocket 3.4 00:57:20 19° SSE 01:00:29 33° ESE 01:05:31 10° NE
ADEOS II 3.2 01:00:20 10° NNE 01:05:09 36° E 01:08:46 16° SSE
Cosmos 1553 Rocket 4.4 01:02:58 28° SW 01:05:57 51° WNW 01:11:57 10° N
Cosmos 2150 Rocket 4.4 01:06:08 27° S 01:08:46 55° ESE 01:13:49 10° NNE
Cosmos 1300 2.8 01:06:22 10° N 01:10:10 73° E 01:11:51 31° SSE
Cosmos 405 Rocket 2.7 01:10:48 44° SW 01:11:44 62° WNW 01:15:26 10° N
Cosmos 2221 Rocket 4.4 01:10:51 28° WSW 01:12:22 37° WNW 01:16:30 10° N
Okean 1 Rocket 3.1 01:10:46 10° NNW 01:15:06 60° W 01:16:47 34° SSW
USA 215 4.5 01:09:52 10° ENE 01:15:56 42° N 01:22:01 10° WNW
IDEFIX/ARIANE 42P 3.7 01:11:59 10° NNE 01:16:53 37° E 01:20:54 14° SSE
Cosmos 1238 Rocket 3.9 01:15:21 10° NW 01:17:10 19° WNW 01:17:10 19° WNW
Cosmos 2360 Rocket 3.6 01:13:37 14° WSW 01:17:38 30° NW 01:22:36 10° NNE
ATLAS 5 CENTAUR R/B 3.2 01:07:25 10° NW 01:17:58 44° WSW 01:19:49 29° SSW
Cosmos 1908 4.3 01:16:51 10° NNW 01:20:07 27° W 01:20:34 27° WSW
Cosmos 1461 2.8 01:16:11 10° NW 01:20:18 68° SW 01:23:29 17° SSE
Meteor 2-10 Rocket 3.8 01:16:45 10° N 01:22:34 82° ENE 01:27:14 15° SSE
CZ-2D R/B 2.1 01:21:53 10° NNE 01:27:21 88° WNW 01:30:34 25° SSW
Cosmos 2278 Rocket 2.1 01:22:17 10° NNW 01:28:00 82° WSW 01:33:40 10° SSE
Meteor 2-5 Rocket 4.4 01:27:37 15° SSE 01:32:17 53° E 01:37:51 10° NNE
Cosmos 1048 Rocket 4.3 01:28:57 10° NW 01:33:52 44° WSW 01:36:29 25° SSW
SME Rocket 3.7 01:32:57 29° SW 01:33:59 34° W 01:38:01 10° NNW
Cosmos 1867 3.6 01:30:59 26° SW 01:34:11 89° NW 01:39:43 10° NE
Gblst 52 Del rocket 4.2 01:30:00 14° WSW 01:35:08 81° NNW 01:40:40 10° ENE
Meteor 1-24 Rocket 4.5 01:31:03 13° SSE 01:35:57 49° E 01:41:17 10° NNE
Cosmos 2333 Rocket 3.3 01:33:18 16° WSW 01:37:14 35° NW 01:42:27 10° NNE
Cosmos 1125 Rocket 3.5 01:37:42 25° SSW 01:40:47 81° WNW 01:46:02 10° NNE
SL-16 R/B 2.6 01:37:47 16° S 01:42:42 63° WSW 01:48:55 10° NNW
YAOGAN 11 4.1 01:39:55 21° S 01:42:50 67° WSW 01:47:18 10° NNW
SL-16 R/B 3.9 01:39:00 10° SSE 01:43:31 25° ESE 01:48:03 10° NE
Cosmos 1943 Rocket 3.4 01:39:25 10° NNW 01:44:53 45° NE 01:50:19 10° SE
EO 1 Del DPAF 3.4 01:43:01 10° NNE 01:46:31 60° ESE 01:48:39 22° S
Cosmos 2298 Rocket 4.1 01:45:28 23° SW 01:48:47 70° WNW 01:54:06 10° NNE
USA 290 3.5 01:48:51 22° W 01:50:07 29° WNW 01:53:01 10° N
Cosmos 1980 3.7 01:46:55 21° SSW 01:50:48 81° ESE 01:56:29 10° NNE
ATLAS CENTAUR R/B 3.0 01:48:11 10° WNW 01:51:44 21° WSW 01:52:17 20° WSW
Cosmos 2322 Rocket 4.5 01:50:04 10° WNW 01:53:13 15° NW 01:56:24 10° N
AQUA 3.8 01:51:30 10° N 01:56:16 72° WNW 01:59:33 20° SSW
USA 229 DEB 4.0 01:50:43 10° NW 01:57:57 60° WSW 02:05:37 10° SSE
USA 229 4.0 01:50:49 10° NW 01:58:02 61° WSW 02:05:43 10° SSE
SL-14 R/B 4.5 01:56:23 20° WSW 01:58:10 28° WNW 02:01:35 10° N
Cosmos 1455 Rocket 3.2 01:55:14 10° NNW 01:59:38 58° W 02:02:59 17° S
Cosmos 1953 3.9 01:58:50 10° NW 02:01:43 19° W 02:02:56 17° WSW
IRS-1D 4.2 01:56:50 10° NNE 02:02:07 56° E 02:07:19 10° S
GP-B 4.4 01:58:53 10° NNW 02:02:33 26° WNW 02:04:48 17° WSW
NOSS 2-2 (C) 4.4 02:00:17 10° NW 02:05:18 55° SW 02:12:19 10° SSE
MSX 4.0 02:00:29 10° NNE 02:06:16 74° ESE 02:11:47 11° S
Helios 1A 3.0 02:02:52 14° S 02:06:23 59° WSW 02:10:34 10° NNW
Cosmos 371 Rocket 3.7 02:04:37 19° SW 02:07:57 53° WNW 02:12:45 10° NNE
NPP 4.1 02:03:53 10° N 02:09:04 49° WNW 02:13:05 16° SW
UNK 4.4 02:07:23 18° SSW 02:10:13 36° W 02:14:29 10° NNW
ALOS 4.5 02:07:15 10° NE 02:10:54 22° E 02:14:31 10° SE
Meteor 1-28 Rocket 3.6 02:10:52 17° SSW 02:13:27 43° W 02:17:02 10° NNW
Cosmos 1975 Rocket 3.5 02:11:29 18° SW 02:14:30 49° WNW 02:18:51 10° N
USA 306 3.6 02:13:37 17° SSW 02:16:24 40° SE 02:20:20 10° ENE
Resurs 1-4 Rocket 3.0 02:11:43 10° N 02:16:28 35° WNW 02:20:23 14° SW
USA 307 3.8 02:13:44 16° SSW 02:16:32 35° SE 02:20:23 10° ENE
Cosmos 1271 Rocket 3.8 02:15:47 10° N 02:19:25 44° ENE 02:23:05 10° SSE
COSMOS 2441 4.4 02:19:07 10° NNE 02:24:02 85° ESE 02:28:54 10° SSW
Helios 1B rocket 3.4 02:20:33 10° NNE 02:24:27 43° E 02:28:20 10° S
Cosmos 2074 Rocket 4.0 02:18:36 10° NNW 02:24:51 69° W 02:31:05 10° S
Cosmos 2219 Rocket 3.9 02:21:44 10° W 02:26:05 23° NW 02:30:28 10° N
Cosmos 2228 4.1 02:23:27 10° N 02:27:44 48° ENE 02:31:57 10° SSE
NOSS 0 Rocket 4.4 02:22:49 14° SW 02:28:09 52° NW 02:34:16 10° NNE
CZ-4C R/B 3.7 02:22:10 10° NW 02:28:37 32° WSW 02:35:52 10° S
MOS 1 Rocket 4.1 02:26:10 14° SSW 02:29:01 28° W 02:32:44 10° NW
SeaSat 1 4.1 02:25:38 10° NE 02:29:56 29° ESE 02:34:12 10° S
COSMOS 2428 4.1 02:26:21 10° WSW 02:31:10 27° NW 02:36:01 10° NNE
Cosmos 2184 Rocket 4.1 02:26:30 10° NNW 02:32:43 63° W 02:38:49 10° S
CZ-2C R/B 3.9 02:28:50 10° NNE 02:33:39 37° E 02:38:20 10° SSE
Cosmos 304 Rocket 4.3 02:30:28 14° SW 02:34:30 48° WNW 02:39:12 10° NNE
Cosmos 1269 Rocket 4.1 02:32:00 10° NNW 02:37:11 57° WSW 02:42:20 10° S
Cosmos 1455 2.4 02:37:49 10° NNW 02:41:25 48° W 02:44:59 10° S
Cosmos 1610 Rocket 4.5 02:35:46 10° NNW 02:41:58 79° W 02:48:05 10° S
Cosmos 2237 Rocket 2.8 02:39:10 11° SW 02:44:23 47° NW 02:49:54 10° NNE
ADEOS II 2.9 02:40:03 10° N 02:44:50 37° WNW 02:49:37 10° SW
Cosmos 1544 Rocket 4.2 02:40:54 10° NNW 02:45:01 38° W 02:49:05 10° SSW
Cosmos 1025 Rocket 4.1 02:41:57 12° SW 02:45:30 30° WNW 02:49:22 10° N
BREEZE-M DEB (TANK) 3.6 02:36:41 10° W 02:46:24 83° N 02:49:34 10° E
USA 308 3.2 02:42:41 12° SW 02:46:31 56° SE 02:50:39 10° ENE
Cosmos 2084 Rocket 3.8 02:43:31 10° SSW 02:47:15 49° SE 02:50:56 10° NE
Cosmos 1703 3.6 02:43:44 10° S 02:47:38 67° E 02:51:34 10° NNE
Lacrosse 5 2.9 02:48:46 10° SSW 02:53:28 39° SE 02:58:12 10° ENE
Cosmos 2297 3.7 02:47:57 10° NNW 02:53:44 78° WSW 02:59:27 10° SSE
IDEFIX/ARIANE 42P 3.5 02:51:39 10° N 02:56:25 36° WNW 03:01:10 10° SW
Cosmos 614 Rocket 4.0 02:52:13 10° NNW 02:57:26 83° WSW 03:02:37 10° SSE
USA 215 4.1 02:51:58 10° E 02:58:18 55° NNE 03:04:40 10° NW
DELTA 2 DEB (DPAF) 4.3 02:58:20 10° SSE 03:02:46 81° ENE 03:07:13 10° NNW
SL-24 DEB 4.4 03:00:18 10° S 03:05:03 83° E 03:09:49 10° N
Cosmos 292 Rocket 4.2 03:01:00 10° S 03:05:47 64° ESE 03:10:33 10° NNE
